Location: Wildcat Hills Observatory
(41.6350°N, 103.6812°W)
Time: 17:38:48
(UTC-06:00)

Cosmos 1634 Rocket - Visible Passes

Search period start: 30 October 2014 00:00
Search period end: 08 November 2014 23:00
Orbit: 961 x 992 km, 82.9° (Epoch: 28 October)

Date Brightness Start Highest point End Pass type
(mag) Time Alt. Az. Time Alt. Az. Time Alt. Az.
30 Oct 4.1 05:12:17 10° S 05:18:31 75° E 05:24:50 10° N visible
31 Oct 6.3 03:55:05 10° SE 03:59:24 20° E 04:03:44 10° NE visible
31 Oct 4.0 05:37:58 10° SSW 05:44:10 63° W 05:50:27 10° N visible
01 Nov 5.4 04:19:03 10° SSE 04:24:39 36° E 04:30:19 10° NNE visible
01 Nov 4.5 06:04:20 10° SW 06:10:00 35° WNW 06:15:44 10° N visible
02 Nov 4.3 03:43:54 10° S 03:50:05 65° E 03:56:20 10° NNE visible
02 Nov 5.2 05:31:34 10° WSW 05:36:02 20° WNW 05:40:32 10° NNW visible
03 Nov 6.4 02:27:20 10° ESE 02:31:04 17° E 02:34:55 10° NE visible
03 Nov 3.9 04:12:17 29° SSW 04:15:41 72° W 04:22:01 10° N visible
03 Nov 5.7 06:00:56 10° WNW 06:02:17 11° WNW 06:03:38 10° NW visible
04 Nov 5.5 02:55:29 30° E 02:56:16 31° E 03:01:42 10° NNE visible
04 Nov 4.3 04:40:18 37° W 04:41:29 40° WNW 04:47:24 10° N visible
05 Nov 4.7 03:22:36 51° ENE 03:22:36 51° ENE 03:27:50 10° NNE visible
05 Nov 5.0 05:07:22 23° WNW 05:07:27 23° WNW 05:12:21 10° NNW visible
06 Nov 6.6 02:04:32 13° ENE 02:04:32 13° ENE 02:05:58 10° NE visible
06 Nov 4.6 03:49:18 46° N 03:49:18 46° N 03:53:35 10° N visible
06 Nov 5.6 05:34:03 13° WNW 05:34:03 13° WNW 05:36:16 10° NW visible
07 Nov 6.2 02:31:00 19° NE 02:31:00 19° NE 02:33:03 10° NNE visible
07 Nov 5.1 04:15:45 29° NNW 04:15:45 29° NNW 04:19:02 10° N visible
08 Nov 6.0 02:57:18 21° NNE 02:57:18 21° NNE 02:59:18 10° NNE visible
08 Nov 5.5 04:42:02 18° NNW 04:42:02 18° NNW 04:44:07 10° NNW visible
